Flag for U.S.A. Weather past 2 weeks in Detroit, Michigan, U.S.A.

Now
67 °F

Clear.


Feels Like: 67 °F
Forecast: 64 / 81 °F
Wind: 6 mph from West

Location: Detroit City Airport

Current Time: Aug 1, 2015 at 6:02:55 AM

Latest Report: Aug 1, 2015 at 4:53 AM


Visibility: 10 mi

Pressure: 29.88 "Hg

Humidity: 61%

Dew point: 53 °F

Location of DetroitLocation

Historic Weather in Detroit — Graph

°F

Detroit temperature yesterday

Maximum temperature yesterday: 87 °F (at 4:53 PM)
Minimum temperature yesterday: 68 °F (at 6:53 AM)
Average temperature yesterday: 78 °F

Past Weeks' High & Low Weather Summary

 TemperatureHumidityPressure
High90 °F (Jul 19, 3:53 PM)93% (Jul 17, 7:53 AM)30.05 "Hg (Jul 17, 7:53 AM)
Low62 °F (Jul 22, 4:53 AM)29% (Jul 31, 4:53 PM)29.26 "Hg (Jul 19, 12:53 PM)
Average77 °F60%29.90 "Hg
* Reported Jul 17 4:53 AM — Aug 1 4:53 AM, Detroit, Weather by CustomWeather, © 2015

Note: Actual official high and low records may vary slightly from our data, if they occured in-between our weather recording intervals... More about our weather records

Advertising

Detroit weather history for previous 24 hours

 ConditionsComfort  
Time TempWeatherWind HumidityBarometerVisibility
4:53 AM
Sat, Aug 1
67 °FClear.6 mph61%29.88 "Hg10 mi
3:53 AM68 °FClear.3 mph61%29.88 "Hg10 mi
2:53 AM70 °FClear.5 mph57%29.88 "Hg10 mi
1:53 AM70 °FClear.3 mph57%29.88 "Hg10 mi
12:53 AM72 °FClear.6 mph53%29.88 "Hg10 mi
11:53 PM
Fri, Jul 31
73 °FClear.7 mph48%29.87 "Hg10 mi
10:53 PM75 °FClear.5 mph42%29.86 "Hg10 mi
9:53 PM77 °FClear.7 mph35%29.84 "Hg10 mi
8:53 PM79 °FSunny.7 mph31%29.83 "Hg10 mi
7:53 PM82 °FSunny.16 mph32%29.82 "Hg10 mi
6:53 PM84 °FSunny.15 mph29%29.81 "Hg10 mi
5:53 PM86 °FSunny.13 mph31%29.81 "Hg10 mi
4:53 PM87 °FSunny.21 mph29%29.81 "Hg10 mi
3:53 PM85 °FSunny.15 mph36%29.82 "Hg10 mi
2:53 PM85 °FSunny.13 mph37%29.84 "Hg10 mi
1:53 PM85 °FSunny.12 mph36%29.86 "Hg10 mi
12:53 PM84 °FSunny.17 mph37%29.88 "Hg10 mi
11:53 AM84 °FSunny.12 mph38%29.90 "Hg10 mi
10:53 AM81 °FSunny.7 mph45%29.92 "Hg10 mi
9:53 AM79 °FSunny.9 mph47%29.93 "Hg10 mi
8:53 AM75 °FSunny.7 mph58%29.93 "Hg10 mi
7:53 AM70 °FSunny.7 mph66%29.93 "Hg10 mi
6:53 AM68 °FClear.6 mph68%29.93 "Hg10 mi
Weather by CustomWeather, © 2015

See weather overviewHow to use our weather pages